Orbital Elements at Epoch 2459000.5 (2020-May-31.0) TDB
Reference: JPL 22 (heliocentric ecliptic J2000)
Element | Value | Uncertainty (1-sigma) | Units |
e | .1109313940025941 | 4.119e-08 | |
a | 2.799603626438791 | 1.7189e-08 | au |
q | 2.489039693503218 | 1.2184e-07 | au |
i | 4.218260115182401 | 4.3698e-06 | deg |
node | 142.83417698 | 6.5403e-05 | deg |
peri | 176.9787756882527 | 6.886e-05 | deg |
M | 320.5175927807766 | 2.2634e-05 | deg |
tp | 2459188.148186110398 (2020-Dec-04.64818611) | 0.00010803 | TDB |
period | 1710.973361493842 4.68 | 1.5757e-05 4.314e-08 | d yr |
n | .2104065487528607 | 1.9377e-09 | deg/d |
Q | 3.110167559374363 | 1.9095e-08 | au |
|
| | Orbit Determination Parameters
Additional Information
|